| time (UTC) | temp C | wind direction | speed KPH | gust KPH | rain 1hr cm | rain 24hr cm | rain mn cm | humidity % | barometer mb |
| 20260503034505 | 3 | 51 | 0.0 | 0.0 | 0.00 | 0.00 | 0.00 | 85 | 1019.4 |
| 20260503033008 | 3 | 51 | 0.0 | 0.0 | 0.00 | 0.00 | 0.00 | 83 | 1019.1 |
| 20260503031512 | 4 | 51 | 0.0 | 0.0 | 0.00 | 0.00 | 0.00 | 82 | 1019.0 |
| 20260503030013 | 5 | 51 | 0.0 | 0.0 | 0.00 | 0.00 | 0.00 | 80 | 1018.9 |
| 20260503024521 | 5 | 51 | 0.0 | 0.0 | 0.00 | 0.00 | 0.00 | 79 | 1018.9 |
| 20260503023004 | 5 | 51 | 0.0 | 1.6 | 0.00 | 0.00 | 0.00 | 77 | 1018.8 |
| 20260503021510 | 6 | 51 | 0.0 | 3.2 | 0.00 | 0.00 | 0.00 | 76 | 1018.7 |
| 20260503020012 | 6 | 51 | 0.0 | 0.0 | 0.00 | 0.00 | 0.00 | 74 | 1018.5 |
| 20260503014531 | 7 | 51 | 0.0 | 0.0 | 0.00 | 0.00 | 0.00 | 73 | 1018.3 |
| 20260503013027 | 7 | 51 | 0.0 | 0.0 | 0.00 | 0.00 | 0.00 | 71 | 1018.2 |
| 20260503011504 | 8 | 51 | 0.0 | 0.0 | 0.00 | 0.00 | 0.00 | 68 | 1018.0 |
| 20260503010011 | 8 | 51 | 0.0 | 0.0 | 0.00 | 0.00 | 0.00 | 67 | 1017.8 |
| 20260503004544 | 9 | 12 | 0.0 | 0.0 | 0.00 | 0.00 | 0.00 | 62 | 1017.6 |
| 20260503003018 | 10 | 312 | 0.0 | 0.0 | 0.00 | 0.00 | 0.00 | 59 | 1017.4 |
| 20260503001524 | 10 | 312 | 0.0 | 3.2 | 0.00 | 0.00 | 0.00 | 54 | 1017.1 |
| 20260503000014 | 11 | 337 | 0.0 | 0.0 | 0.00 | 0.00 | 0.00 | 50 | 1016.9 |
| 20260502234512 | 11 | 337 | 0.0 | 4.8 | 0.00 | 0.00 | 0.00 | 47 | 1016.8 |
| 20260502233019 | 11 | 180 | 0.0 | 3.2 | 0.00 | 0.00 | 0.00 | 46 | 1016.8 |
| 20260502231520 | 11 | 204 | 0.0 | 4.8 | 0.00 | 0.00 | 0.00 | 44 | 1016.7 |
| 20260502230028 | 12 | 317 | 3.2 | 6.4 | 0.00 | 0.00 | 0.00 | 43 | 1016.6 |
| 20260502224512 | 12 | 96 | 1.6 | 6.4 | 0.00 | 0.00 | 0.00 | 43 | 1016.6 |
| 20260502223017 | 12 | 129 | 1.6 | 11.3 | 0.00 | 0.00 | 0.00 | 45 | 1016.5 |
| 20260502221521 | 12 | 346 | 3.2 | 8.0 | 0.00 | 0.00 | 0.00 | 41 | 1016.5 |
| 20260502220033 | 12 | 318 | 3.2 | 14.5 | 0.00 | 0.00 | 0.00 | 41 | 1016.3 |
| 20260502214526 | 13 | 318 | 1.6 | 11.3 | 0.00 | 0.00 | 0.00 | 41 | 1016.2 |
| 20260502213012 | 13 | 250 | 6.4 | 16.1 | 0.00 | 0.00 | 0.00 | 39 | 1016.1 |
| 20260502211528 | 13 | 143 | 3.2 | 12.9 | 0.00 | 0.00 | 0.00 | 39 | 1016.1 |
| 20260502210022 | 13 | 318 | 4.8 | 14.5 | 0.00 | 0.00 | 0.00 | 39 | 1016.1 |
| 20260502204507 | 13 | 331 | 3.2 | 12.9 | 0.00 | 0.00 | 0.00 | 39 | 1016.0 |
| 20260502203009 | 13 | 350 | 4.8 | 14.5 | 0.00 | 0.00 | 0.00 | 39 | 1016.2 |
| 20260502201515 | 13 | 288 | 4.8 | 11.3 | 0.00 | 0.00 | 0.00 | 41 | 1016.3 |
| 20260502200020 | 13 | 264 | 3.2 | 11.3 | 0.00 | 0.00 | 0.00 | 41 | 1016.4 |
| 20260502194526 | 13 | 228 | 6.4 | 16.1 | 0.00 | 0.00 | 0.00 | 41 | 1016.5 |
| 20260502193006 | 13 | 311 | 1.6 | 8.0 | 0.00 | 0.00 | 0.00 | 44 | 1016.7 |
| 20260502191521 | 12 | 292 | 3.2 | 11.3 | 0.00 | 0.00 | 0.00 | 43 | 1016.8 |
| 20260502190020 | 13 | 262 | 6.4 | 12.9 | 0.00 | 0.00 | 0.00 | 42 | 1016.8 |
| 20260502184523 | 13 | 334 | 4.8 | 11.3 | 0.00 | 0.00 | 0.00 | 41 | 1017.0 |
| 20260502183024 | 13 | 316 | 4.8 | 9.7 | 0.00 | 0.00 | 0.00 | 42 | 1017.0 |
| 20260502181529 | 12 | 276 | 4.8 | 12.9 | 0.00 | 0.00 | 0.00 | 44 | 1017.2 |
| 20260502163032 | 13 | 307 | 3.2 | 14.5 | 0.00 | 0.00 | 0.00 | 42 | 1017.9 |
| 20260502161527 | 13 | 313 | 3.2 | 22.5 | 0.00 | 0.00 | 0.00 | 43 | 1017.8 |
| 20260502151524 | 12 | 172 | 1.6 | 11.3 | 0.00 | 0.00 | 0.00 | 51 | 1018.2 |
| 20260502123002 | 3 | 237 | 1.6 | 4.8 | 0.00 | 0.00 | 0.00 | 96 | 1018.2 |
| 20260502121503 | 3 | 248 | 0.0 | 3.2 | 0.00 | 0.00 | 0.00 | 96 | 1018.1 |
| 20260502114503 | 2 | 61 | 0.0 | 0.0 | 0.00 | 0.00 | 0.00 | 96 | 1017.9 |
| 20260502113003 | 1 | 61 | 0.0 | 0.0 | 0.00 | 0.00 | 0.00 | 95 | 1018.0 |
| 20260502111503 | 1 | 61 | 0.0 | 0.0 | 0.00 | 0.00 | 0.00 | 95 | 1017.9 |
| 20260502110006 | 1 | 61 | 0.0 | 0.0 | 0.00 | 0.00 | 0.00 | 94 | 1017.7 |
| 20260502104518 | 1 | 61 | 0.0 | 0.0 | 0.00 | 0.00 | 0.00 | 94 | 1017.5 |
| 20260502103003 | 1 | 61 | 0.0 | 0.0 | 0.00 | 0.00 | 0.00 | 94 | 1017.5 |
| 20260502101508 | 1 | 61 | 0.0 | 0.0 | 0.00 | 0.00 | 0.00 | 94 | 1017.6 |
| 20260502091512 | 1 | 61 | 0.0 | 0.0 | 0.00 | 0.00 | 0.00 | 94 | 1017.8 |
| 20260502071517 | 2 | 61 | 0.0 | 1.6 | 0.00 | 0.00 | 0.00 | 93 | 1017.7 |
| 20260502070011 | 2 | 34 | 0.0 | 4.8 | 0.00 | 0.00 | 0.00 | 93 | 1017.7 |
| 20260502064513 | 2 | 34 | 0.0 | 3.2 | 0.00 | 0.00 | 0.00 | 93 | 1017.9 |
| 20260502063003 | 2 | 34 | 0.0 | 0.0 | 0.00 | 0.00 | 0.00 | 92 | 1018.0 |
| 20260502061504 | 2 | 34 | 0.0 | 0.0 | 0.00 | 0.00 | 0.00 | 92 | 1018.0 |
| 20260502060004 | 3 | 34 | 0.0 | 0.0 | 0.00 | 0.00 | 0.00 | 91 | 1018.0 |
| 20260502054513 | 3 | 34 | 0.0 | 0.0 | 0.00 | 0.00 | 0.00 | 91 | 1018.0 |
| 20260502053014 | 3 | 34 | 0.0 | 0.0 | 0.00 | 0.00 | 0.00 | 90 | 1018.2 |
| 20260502051504 | 3 | 34 | 0.0 | 0.0 | 0.00 | 0.00 | 0.00 | 90 | 1018.3 |
| 20260502050004 | 3 | 34 | 0.0 | 1.6 | 0.00 | 0.00 | 0.00 | 89 | 1018.3 |
| 20260502044505 | 4 | 34 | 0.0 | 1.6 | 0.00 | 0.00 | 0.00 | 89 | 1018.2 |
| 20260502043019 | 5 | 34 | 0.0 | 0.0 | 0.00 | 0.00 | 0.00 | 88 | 1018.4 |
| 20260502041517 | 5 | 34 | 0.0 | 3.2 | 0.00 | 0.00 | 0.00 | 85 | 1018.5 |
| 20260502040015 | 5 | 34 | 0.0 | 0.0 | 0.00 | 0.00 | 0.00 | 83 | 1018.5 |